Flag for Germany Weather past 2 weeks in Neustrelitz, Mecklenburg-Western Pomerania, Germany

Now
53 °F

Low clouds.


Feels Like: 53 °F
Forecast: 39 / 51 °F
Wind: 2 mph from Southeast

Location: Neuruppin

Current Time: Oct 23, 2014 at 4:25:39 PM

Latest Report: Oct 23, 2014 at 4:00 PM


Visibility: 6 mi

Pressure: 30.19 "Hg

Humidity: 89%

Dew point: 50 °F

Location of NeustrelitzLocation

Historic Weather in Neustrelitz — Graph

°F

Neustrelitz temperature yesterday

Maximum temperature yesterday: 53 °F (at 7:00 PM)
Minimum temperature yesterday: 47 °F (at 6:00 AM)
Average temperature yesterday: 50 °F

Past Weeks' High & Low Weather Summary

 TemperatureHumidityPressure
High71 °F (Oct 19, 3:00 PM)100% (Oct 15, 8:00 AM)30.23 "Hg (Oct 15, 8:00 AM)
Low47 °F (Oct 16, 1:00 AM)67% (Oct 10, 2:00 PM)29.44 "Hg (Oct 21, 9:00 PM)
Average56 °F91%29.86 "Hg
* Reported Oct 8 3:00 PM — Oct 23 3:00 PM, Neustrelitz, Weather by CustomWeather, © 2014

Note: Actual official high and low records may vary slightly from our data, if they occured in-between our weather recording intervals... More about our weather records

Advertising

Neustrelitz weather history for previous 24 hours

 ConditionsComfort  
Time TempWeatherWind HumidityBarometerVisibility
3:00 PM
Oct 23
54 °FOvercast.1 mph88%30.19 "Hg6 mi
2:00 PM54 °FOvercast.1 mph85%30.17 "Hg6 mi
1:00 PM54 °FOvercast.1 mph86%30.17 "Hg6 mi
12:00 PM54 °FLow clouds.1 mph90%30.16 "Hg6 mi
10:00 AM53 °FLow clouds.2 mph91%30.13 "Hg6 mi
9:00 AM53 °FOvercast.1 mph95%30.11 "Hg4 mi
8:00 AM53 °FOvercast.1 mph96%30.09 "Hg2 mi
7:00 AM52 °FLow clouds.1 mph97%30.06 "Hg2 mi
6:00 AM52 °FLow clouds.1 mph97%30.04 "Hg2 mi
5:00 AM52 °FLow clouds.2 mph97%30.02 "Hg2 mi
4:00 AM51 °FLow clouds.2 mph97%30.01 "Hg3 mi
3:00 AM51 °FLow clouds.2 mph97%30.00 "Hg3 mi
2:00 AM51 °FOvercast.3 mph97%29.98 "Hg4 mi
1:00 AM50 °FOvercast.1 mph97%29.97 "Hg3 mi
12:00 AM50 °FPassing clouds.3 mph97%29.95 "Hg4 mi
10:00 PM
Oct 22
52 °FPassing clouds.3 mph96%29.89 "Hg4 mi
9:00 PM53 °FOvercast.3 mph94%29.87 "Hg6 mi
8:00 PM53 °FOvercast.3 mph94%29.85 "Hg6 mi
7:00 PM53 °FOvercast.5 mph94%29.81 "Hg6 mi
6:00 PM53 °FOvercast.5 mph94%29.76 "Hg6 mi
4:00 PM51 °FLow clouds.3 mph97%29.70 "Hg3 mi
Weather by CustomWeather, © 2014

See weather overviewHow to use our weather pages